DW1454 Weather Reports


Display with metric or nautical units.
time (UTC)temp
F
wind
direction
speed
MPH
gust
MPH
rain 1hr
in
rain 24hr
in
rain mn
in
humidity
%
barometer
mb
20260902065006 31 0.0 0.0 0.00 0.00 0.00 55 1009.7
20260902064216 31 0.0 0.0 0.00 0.00 0.00 55 1009.7
20260902063006 31 0.0 0.0 0.00 0.00 0.00 55 1009.6
20260902062006 32 0.0 0.0 0.00 0.00 0.00 54 1009.6
20260902061005 32 0.0 0.0 0.00 0.00 0.00 55 1009.4
20260902060218 33 0.0 0.0 0.00 0.00 0.00 54 1009.5
20260902055005 33 0.0 0.0 0.00 0.00 0.00 54 1009.4
20260902054006 34 0.0 0.0 0.00 0.00 0.00 53 1009.4
20260902053006 35 0.0 0.0 0.00 0.00 0.00 53 1009.6
20260902052215 36 0.0 0.0 0.00 0.00 0.00 53 1009.5
20260902051006 37 0.0 0.0 0.00 0.00 0.00 53 1009.5
20260902050008 38 0.0 0.0 0.00 0.00 0.00 53 1009.6
20260902045006 40 0.0 0.0 0.00 0.00 0.00 53 1009.5
20260902044006 41 0.0 0.0 0.00 0.00 0.00 53 1009.4
20260902043006 42 0.0 0.0 0.00 0.00 0.00 53 1009.4
20260902042005 44 0.0 0.0 0.00 0.00 0.00 53 1009.4
20260902041006 45 0.0 0.0 0.00 0.00 0.00 52 1009.4
20260902040006 45 0.0 0.0 0.00 0.00 0.00 49 1009.4
20260902035006 46 0.0 0.0 0.00 0.00 0.00 49 1009.4
20260902034006 47 0.0 0.0 0.00 0.00 0.00 47 1009.5
20260902033005 48 0.0 0.0 0.00 0.00 0.00 45 1009.5
20260902032006 49 0.0 0.0 0.00 0.00 0.00 42 1009.5
20260902031005 49 0.0 0.0 0.00 0.00 0.00 41 1009.5
20260902030006 50 0.0 0.0 0.00 0.00 0.00 41 1009.4
20260902025006 49 0.0 0.0 0.00 0.00 0.00 40 1009.4
20260902024006 50 0.0 0.0 0.00 0.00 0.00 40 1009.3
20260902023006 50 0.0 0.0 0.00 0.00 0.00 39 1009.4
20260902022006 51 0.0 0.0 0.00 0.00 0.00 39 1009.4
20260902021006 51 0.0 0.0 0.00 0.00 0.00 38 1009.4
20260902020007 51 0.0 0.0 0.00 0.00 0.00 38 1009.4
20260902015216 51 0.0 0.0 0.00 0.00 0.00 38 1009.4
20260902014005 52 0.0 0.0 0.00 0.00 0.00 40 1009.4
20260902013005 52 0.0 0.0 0.00 0.00 0.00 41 1009.5
20260902012006 52 0.0 0.0 0.00 0.00 0.00 41 1009.4
20260902011005 52 0.0 0.0 0.00 0.00 0.00 41 1009.5
20260902010006 52 0.0 0.0 0.00 0.00 0.00 40 1009.5
20260902005006 52 0.0 0.0 0.00 0.00 0.00 39 1009.6
20260902004005 52 0.0 0.0 0.00 0.00 0.00 42 1009.6
20260902003006 51 0.0 0.0 0.00 0.00 0.00 40 1009.6
20260902002006 52 0.0 0.0 0.00 0.00 0.00 40 1009.6
20260902001006 53 0.0 0.0 0.00 0.00 0.00 40 1009.6
20260902000006 53 0.0 0.0 0.00 0.00 0.00 41 1009.7
20260901235006 52 0.0 0.0 0.00 0.00 0.00 42 1009.7
20260901234006 51 0.0 0.0 0.00 0.00 0.00 44 1009.7
20260901233006 51 0.0 0.0 0.00 0.00 0.00 43 1009.8
20260901232007 51 0.0 0.0 0.00 0.00 0.00 46 1009.9
20260901231006 51 0.0 0.0 0.00 0.00 0.00 46 1009.9
20260901230006 50 0.0 0.0 0.00 0.00 0.00 45 1010.0
20260901225006 50 0.0 0.0 0.00 0.00 0.00 45 1010.1
20260901224006 50 0.0 0.0 0.00 0.00 0.00 47 1010.2
20260901223006 50 0.0 0.0 0.00 0.00 0.00 49 1010.3
20260901222006 50 0.0 0.0 0.00 0.00 0.00 49 1010.4
20260901221005 49 0.0 0.0 0.00 0.00 0.00 50 1010.5
20260901220006 51 0.0 0.0 0.00 0.00 0.00 51 1010.5
20260901215006 49 0.0 0.0 0.00 0.00 0.00 51 1010.5
20260901214006 49 0.0 0.0 0.00 0.00 0.00 52 1010.5
20260901213216 49 0.0 0.0 0.00 0.00 0.00 52 1010.6
20260901212007 48 0.0 0.0 0.00 0.00 0.00 53 1010.7
20260901211007 48 0.0 0.0 0.00 0.00 0.00 55 1010.8
20260901210216 47 0.0 0.0 0.00 0.00 0.00 57 1011.0
20260901205005 47 0.0 0.0 0.00 0.00 0.00 58 1011.1
20260901204005 46 0.0 0.0 0.00 0.00 0.00 59 1011.2
20260901203006 45 0.0 0.0 0.00 0.00 0.00 61 1011.1
20260901202006 43 0.0 0.0 0.00 0.00 0.00 61 1011.2
20260901201006 44 0.0 0.0 0.00 0.00 0.00 62 1011.2
20260901200216 43 0.0 0.0 0.00 0.00 0.00 63 1011.3
20260901195006 42 0.0 0.0 0.00 0.00 0.00 63 1011.3
20260901194006 40 0.0 0.0 0.00 0.00 0.00 63 1011.4
20260901193006 40 0.0 0.0 0.00 0.00 0.00 63 1011.4
20260901192006 40 0.0 0.0 0.00 0.00 0.00 63 1011.6
20260901191006 39 0.0 0.0 0.00 0.00 0.00 63 1011.5
20260901190006 39 0.0 0.0 0.00 0.00 0.00 63 1011.6
20260901185005 39 0.0 0.0 0.00 0.00 0.00 64 1011.7
20260901184006 39 0.0 0.0 0.00 0.00 0.00 64 1011.7
20260901183006 38 0.0 0.0 0.00 0.00 0.00 65 1011.7
20260901182005 38 0.0 0.0 0.00 0.00 0.00 64 1011.8
20260901181005 38 0.0 0.0 0.00 0.00 0.00 65 1011.7
20260901180005 38 0.0 0.0 0.00 0.00 0.00 65 1011.7
20260901175005 37 0.0 0.0 0.00 0.00 0.00 65 1011.7
20260901174008 36 0.0 0.0 0.00 0.00 0.00 64 1011.8
20260901173005 36 0.0 0.0 0.00 0.00 0.00 64 1011.8
20260901172006 35 0.0 0.0 0.00 0.00 0.00 64 1011.9
20260901171006 35 0.0 0.0 0.00 0.00 0.00 64 1011.9
20260901170216 34 0.0 0.0 0.00 0.00 0.00 64 1011.9
20260901165006 34 0.0 0.0 0.00 0.00 0.00 63 1011.9
20260901164005 34 0.0 0.0 0.00 0.00 0.00 63 1011.9
20260901163006 33 0.0 0.0 0.00 0.00 0.00 64 1011.8
20260901162005 33 0.0 0.0 0.00 0.00 0.00 63 1011.8
20260901161006 32 0.0 0.0 0.00 0.00 0.00 62 1011.9
20260901160006 32 0.0 0.0 0.00 0.00 0.00 62 1011.8
20260901155006 31 0.0 0.0 0.00 0.00 0.00 62 1011.8
20260901154005 31 0.0 0.0 0.00 0.00 0.00 62 1011.7
20260901153006 31 0.0 0.0 0.00 0.00 0.00 62 1011.7
20260901152006 30 0.0 0.0 0.00 0.00 0.00 62 1011.6
20260901151006 30 0.0 0.0 0.00 0.00 0.00 61 1011.6
20260901150006 30 0.0 0.0 0.00 0.00 0.00 61 1011.6
20260901145006 30 0.0 0.0 0.00 0.00 0.00 61 1011.5
20260901144006 30 0.0 0.0 0.00 0.00 0.00 61 1011.6
20260901143006 29 0.0 0.0 0.00 0.00 0.00 60 1011.7
20260901142005 29 0.0 0.0 0.00 0.00 0.00 59 1011.6
20260901141005 29 0.0 0.0 0.00 0.00 0.00 59 1011.6
20260901140006 29 0.0 0.0 0.00 0.00 0.00 60 1011.6
20260901135006 29 0.0 0.0 0.00 0.00 0.00 60 1011.6
20260901134006 30 0.0 0.0 0.00 0.00 0.00 59 1011.7
20260901133215 30 0.0 0.0 0.00 0.00 0.00 58 1011.6
20260901132006 30 0.0 0.0 0.00 0.00 0.00 58 1011.6
20260901131007 30 0.0 0.0 0.00 0.00 0.00 59 1011.6
20260901130005 30 0.0 0.0 0.00 0.00 0.00 59 1011.6
20260901125006 30 0.0 0.0 0.00 0.00 0.00 58 1011.6
20260901124006 30 0.0 0.0 0.00 0.00 0.00 59 1011.6
20260901123006 31 0.0 0.0 0.00 0.00 0.00 58 1011.5
20260901122006 30 0.0 0.0 0.00 0.00 0.00 58 1011.4
20260901121005 31 0.0 0.0 0.00 0.00 0.00 58 1011.3
20260901120006 31 0.0 0.0 0.00 0.00 0.00 59 1011.3
20260901115006 32 0.0 0.0 0.00 0.00 0.00 59 1011.4
20260901114005 33 0.0 0.0 0.00 0.00 0.00 59 1011.4
20260901113005 34 0.0 0.0 0.00 0.00 0.00 60 1011.3
20260901112217 36 0.0 0.0 0.00 0.00 0.00 61 1011.3
20260901111006 37 0.0 0.0 0.00 0.00 0.00 61 1011.3
20260901110216 38 0.0 0.0 0.00 0.00 0.00 62 1011.2
20260901105216 39 0.0 0.0 0.00 0.00 0.00 62 1011.2
20260901104006 39 0.0 0.0 0.00 0.00 0.00 62 1011.2
20260901103006 39 0.0 0.0 0.00 0.00 0.00 62 1011.3
20260901102005 39 0.0 0.0 0.00 0.00 0.00 62 1011.3
20260901101005 39 0.0 0.0 0.00 0.00 0.00 62 1011.2
20260901100005 39 0.0 0.0 0.00 0.00 0.00 62 1011.1
20260901095005 39 0.0 0.0 0.00 0.00 0.00 62 1011.1
20260901094005 39 0.0 0.0 0.00 0.00 0.00 62 1011.0
20260901093006 39 0.0 0.0 0.00 0.00 0.00 62 1011.0
20260901092006 39 0.0 0.0 0.00 0.00 0.00 62 1011.0
20260901091005 40 0.0 0.0 0.00 0.00 0.00 61 1011.0
20260901090006 40 0.0 0.0 0.00 0.00 0.00 62 1010.9
20260901085005 40 0.0 0.0 0.00 0.00 0.00 62 1010.9
20260901084006 40 0.0 0.0 0.00 0.00 0.00 61 1010.9
20260901083006 40 0.0 0.0 0.00 0.00 0.00 61 1010.8
20260901082006 40 0.0 0.0 0.00 0.00 0.00 61 1010.8
20260901081215 40 0.0 0.0 0.00 0.00 0.00 61 1010.8
20260901080006 40 0.0 0.0 0.00 0.00 0.00 61 1010.8
20260901075006 40 0.0 0.0 0.00 0.00 0.00 61 1010.8
20260901074005 40 0.0 0.0 0.00 0.00 0.00 60 1010.9
20260901073006 40 0.0 0.0 0.00 0.00 0.00 60 1010.8
20260901072005 41 0.0 0.0 0.00 0.00 0.00 60 1010.7
20260901071005 41 0.0 0.0 0.00 0.00 0.00 60 1010.7
20260901070006 42 0.0 0.0 0.00 0.00 0.00 61 1010.7